Etrek

Turkmenistan     37˚39′46″N   54˚46′07″E
temp.,
°C
wind,
m/s
gust,
m/s
humid.,
%
clouds,
%
prec.,
mm/h
press.,
hPa
HPBL,
m
29 november, sun
sun2923:00+8˚ne2358100 0.0 102926
02:00+8˚nne116182 0.0 102822
05:00+8˚ssw225891 0.0 102722
08:00+7˚s126279 0.0 102722
11:00+10˚e224890 0.0 1026239
14:00+12˚wsw223986 0.0 1024603
17:00+13˚wsw123893 0.0 1023710
20:00+11˚wsw4548100 0.0 1024155
30 november, mon
mon3023:00+11˚wnw1162100 0.0 1024190
02:00+10˚nnw2269100 0.0 1023150
05:00+10˚nne1169100 0.0 102373
08:00+9˚ssw1182100 1.1 1024158
11:00+9˚se2391100 5.0 1025215
14:00+10˚sse3384100 0.4 1024354
17:00+12˚ese227478 0.4 1024517
20:00+11˚ese4576100 0.0 1025230
1 december, tue
tue123:00+11˚e347699 0.0 1025166
02:00+9˚ene45829 0.0 102595
05:00+8˚ne44815 0.0 102480
08:00+7˚ne44790 0.0 102477
11:00+10˚ne45660 0.0 1024265
14:00+14˚nne55540 0.0 1022512
17:00+14˚nne455112 0.0 1021579
20:00+11˚nne33626 0.0 102334
2 december, wed
wed223:00+10˚ne34628 0.0 102345
02:00+9˚ne346210 0.0 102349
05:00+8˚ne346555 0.0 102341
08:00+8˚ene237270 0.0 102423
11:00+11˚e226285 0.0 1024190
14:00+14˚ne2253100 0.0 1022422
17:00+14˚nne2247100 0.0 1022522
20:00+12˚nw3351100 0.0 102352
3 december, thu
thu323:00+11˚nne1156100 0.0 102328
02:00+11˚n1258100 0.0 102426
05:00+11˚s1259100 0.0 102431
08:00+11˚ssw2366100 0.0 102457
11:00+12˚wsw2356100 0.0 1026341
14:00+13˚wsw5551100 0.0 1026779
17:00+13˚wsw3349100 0.0 1026704
20:00+11˚wsw3356100 0.0 1028114